Date,TemperatureHighF,TemperatureAvgF,TemperatureLowF,DewpointHighF,DewpointAvgF,DewpointLowF,HumidityHigh,HumidityAvg,HumidityLow,PressureMaxIn,PressureMinIn,WindSpeedMaxMPH,WindSpeedAvgMPH,GustSpeedMaxMPH,PrecipitationSumIn
2013-1-1,40.3,36.5,26.8,33.0,28.7,15.7,90,73,61,29.97,29.78,53,8,53,0.00
2013-1-2,35.4,27.6,21.9,19.4,16.9,6.6,75,65,51,30.14,29.94,21,6,21,0.00
2013-1-3,26.4,23.2,22.3,18.4,18.1,17.3,84,81,71,30.15,30.01,10,3,10,0.00
2013-1-4,22.3,22.3,22.3,18.2,18.2,18.2,84,84,84,30.04,29.91,2,2,2,0.00
2013-1-5,22.3,22.3,22.3,18.2,18.2,18.2,84,84,84,30.25,29.97,2,2,2,0.00
2013-1-6,22.3,22.3,22.3,18.2,18.2,18.2,84,84,84,30.17,29.91,2,2,2,0.00
2013-1-7,22.3,22.3,22.3,18.2,18.2,18.2,84,84,84,30.34,30.00,2,2,2,0.00
2013-1-8,22.3,22.3,22.3,18.2,18.2,18.2,84,84,84,30.36,30.27,2,2,2,0.00
2013-1-9,22.3,22.3,22.3,18.2,18.2,18.2,84,84,84,30.33,30.08,2,2,2,0.00
2013-1-10,52.0,31.9,0.0,28.2,21.2,0.0,84,54,40,30.46,29.90,14,3,14,0.00
2013-1-11,46.4,39.5,32.4,44.5,35.1,26.7,99,84,73,29.97,29.52,11,3,11,0.22
2013-1-12,49.3,44.8,41.4,47.7,44.4,40.9,99,99,93,29.60,29.51,11,3,11,0.00
2013-1-13,48.0,45.4,42.6,47.6,45.2,42.4,99,99,99,29.59,29.43,6,2,6,0.00
2013-1-14,56.7,49.2,34.7,54.8,44.5,17.0,99,86,49,29.73,29.32,103,6,103,0.14
2013-1-15,38.7,36.8,34.0,37.1,33.1,29.8,99,87,76,29.79,29.63,11,5,11,0.15
2013-1-16,35.2,33.4,32.2,35.0,33.1,31.8,99,99,99,29.65,29.25,12,3,12,0.70
2013-1-17,46.0,39.1,34.9,37.0,31.5,26.3,99,75,60,29.53,29.34,17,6,17,0.00
2013-1-18,35.2,29.6,23.9,26.5,14.6,4.7,78,56,31,29.92,29.43,30,8,30,0.17
2013-1-19,52.9,39.0,23.7,31.6,25.8,14.1,80,61,40,29.85,29.35,19,6,19,0.72
2013-1-20,56.7,42.8,30.2,32.5,23.5,8.6,79,51,20,29.49,29.15,35,12,35,3.71
2013-1-21,32.0,27.6,20.7,19.7,13.3,9.5,75,56,44,29.54,29.29,24,5,24,0.00
2013-1-22,25.2,18.7,11.7,11.5,-0.6,-7.1,56,44,31,29.67,29.29,30,14,30,2.00
2013-1-23,21.2,13.4,7.5,5.1,-0.3,-5.8,80,55,36,29.70,29.61,21,8,21,0.00
2013-1-24,25.7,16.2,6.6,9.7,2.7,-5.9,92,59,28,29.87,29.56,34,9,34,0.61
2013-1-25,23.4,16.4,10.4,17.1,6.6,-2.0,99,67,45,29.88,29.50,15,4,17,0.00
2013-1-26,30.2,20.2,11.1,13.1,10.3,7.1,99,69,42,29.83,29.49,21,7,21,0.00
2013-1-27,39.2,25.3,13.5,16.7,12.2,7.5,78,59,36,29.99,29.83,18,6,18,0.00
2013-1-28,33.8,28.8,20.5,33.6,26.6,14.3,99,91,70,29.94,29.44,9,3,9,0.15
2013-1-29,58.3,43.1,33.4,50.3,41.0,33.2,99,93,68,29.57,29.43,9,3,9,0.00
2013-1-30,68.0,52.8,41.9,62.4,51.7,41.6,99,96,81,29.50,28.75,29,6,29,0.26
2013-1-31,62.6,42.2,26.2,62.3,33.1,11.8,99,72,37,29.25,28.56,34,15,43,32.74
2013-2-1,38.8,27.0,20.5,16.6,12.1,6.8,69,55,34,29.69,29.25,27,12,27,0.31
2013-2-2,42.6,24.6,13.5,22.4,11.1,4.0,99,61,25,29.75,29.48,19,6,19,0.00
2013-2-3,49.1,26.9,18.1,27.3,21.7,17.2,99,83,41,29.48,29.23,17,3,17,0.04
2013-2-4,43.7,27.7,19.6,22.5,13.1,7.8,86,57,28,29.44,29.23,26,10,26,0.39
2013-2-5,35.4,29.0,24.3,29.4,26.9,21.0,99,92,77,29.40,29.31,7,2,7,0.01
2013-2-6,51.4,33.4,23.4,33.7,23.8,12.6,99,71,40,29.79,29.35,21,6,21,0.02
2013-2-7,42.3,28.8,18.7,23.8,15.4,10.2,74,59,32,29.94,29.73,11,4,11,0.00
2013-2-8,34.7,32.4,29.5,34.1,30.7,21.2,99,94,69,29.74,29.09,21,9,21,0.26
2013-2-9,45.3,29.8,18.5,30.9,18.3,5.8,99,67,31,29.81,29.19,34,12,34,0.34
2013-2-10,66.2,33.5,12.4,45.4,12.0,-19.1,89,51,11,29.93,29.75,16,4,16,0.00
2013-2-11,43.9,35.5,27.7,43.4,34.1,22.0,99,95,77,29.75,29.09,13,2,13,0.12
2013-2-12,57.2,41.8,31.8,38.6,28.3,24.5,99,62,35,29.42,29.17,28,11,28,0.31
2013-2-13,59.7,37.1,21.9,34.0,27.6,21.5,99,73,33,29.40,29.10,9,2,9,0.01
2013-2-14,66.0,42.6,28.4,42.9,31.8,23.8,99,74,26,29.42,29.14,11,2,11,0.06
2013-2-15,73.2,50.0,25.9,40.6,32.8,25.6,99,59,27,29.45,29.34,20,6,20,0.01
2013-2-16,45.0,35.0,28.8,35.3,26.5,11.6,99,74,49,29.42,29.18,24,8,24,0.06
2013-2-17,39.9,27.4,17.1,12.4,5.7,-0.7,56,42,26,29.49,29.14,36,17,36,7.78
2013-2-18,48.9,27.9,14.5,14.8,6.8,0.7,62,44,20,29.72,29.49,28,10,28,0.45
2013-2-19,51.8,35.1,21.6,42.4,29.7,13.9,99,82,43,29.63,29.12,24,5,24,0.46
2013-2-20,43.9,30.9,23.2,27.2,14.9,9.8,76,53,33,29.45,29.18,33,15,33,2.96
2013-2-21,44.2,29.4,21.0,18.6,14.9,11.3,76,56,36,29.74,29.43,27,14,27,0.54
2013-2-22,49.5,30.8,18.9,30.7,22.8,14.3,90,74,38,29.84,29.69,11,3,11,0.00
2013-2-23,44.1,37.8,32.5,43.8,37.4,30.6,99,98,90,29.70,29.24,13,4,13,0.21
2013-2-24,58.3,39.2,31.3,42.9,32.2,22.8,99,78,47,29.44,29.19,26,9,26,0.18
2013-2-25,54.0,37.0,27.3,34.5,27.5,22.7,90,70,47,29.68,29.43,19,6,19,0.00
2013-2-26,50.7,36.8,25.5,36.0,31.9,25.3,99,84,56,29.71,29.27,30,8,30,0.11
2013-2-27,45.1,36.5,35.2,40.1,35.8,35.0,99,97,81,29.30,28.94,14,12,15,0.11
2013-2-28,65.1,43.2,33.8,41.8,35.4,27.9,99,77,41,29.07,28.98,17,5,17,0.00
2013-3-1,55.4,39.2,30.2,35.6,30.6,26.9,99,74,44,29.24,29.05,23,9,23,0.00
2013-3-2,48.6,35.3,28.4,28.4,24.7,22.0,79,66,44,29.24,29.15,20,9,20,0.00
2013-3-3,47.1,32.9,27.1,24.0,20.3,16.8,74,61,40,29.23,29.13,27,11,27,0.00
2013-3-4,53.4,36.3,27.0,25.0,20.8,16.8,71,56,35,29.37,29.22,30,13,30,0.24
2013-3-5,71.8,42.9,28.9,31.2,25.7,20.5,82,57,18,29.47,29.37,20,6,20,0.00
2013-3-6,43.5,38.5,34.0,38.9,34.0,29.1,99,84,64,29.39,29.24,36,14,36,0.89
2013-3-7,46.2,38.0,32.4,38.0,31.1,26.0,99,78,56,29.53,29.36,30,14,30,0.08
2013-3-8,46.2,36.0,29.5,37.8,32.2,26.8,99,87,64,29.65,29.46,26,10,26,0.13
2013-3-9,70.7,47.4,28.2,28.3,20.0,-2.2,82,47,10,29.72,29.62,16,6,17,0.00
2013-3-10,59.7,41.2,33.1,39.6,36.0,32.8,99,84,48,29.75,29.70,12,5,13,0.00
2013-3-11,66.9,47.3,33.4,50.3,42.5,33.2,99,87,43,29.76,29.49,14,4,15,0.00
2013-3-12,61.0,52.2,42.8,60.5,50.9,38.8,99,95,80,29.50,29.09,29,9,29,2.95
2013-3-13,46.4,39.6,34.3,39.0,33.6,22.9,94,80,57,29.35,29.28,23,7,23,0.00
2013-3-14,53.4,37.4,29.3,22.9,12.5,2.3,61,40,21,29.42,29.30,31,15,31,1.87
2013-3-15,55.6,39.9,25.2,32.9,21.5,10.6,67,50,30,29.44,29.15,25,9,25,0.00
2013-3-16,44.8,35.8,31.5,37.6,30.0,23.6,99,81,52,29.36,29.20,15,4,15,0.08
2013-3-17,46.0,34.3,27.3,32.7,22.2,17.2,99,65,39,29.74,29.34,18,6,18,0.01
2013-3-18,46.9,31.4,22.1,32.8,22.9,11.6,99,73,38,29.83,29.39,23,7,23,0.21
2013-3-19,62.4,41.2,32.9,47.2,33.6,15.6,99,79,40,29.39,29.12,27,8,27,1.28
2013-3-20,60.3,40.7,28.6,23.0,18.8,12.2,71,45,23,29.34,29.21,29,10,29,0.24
2013-3-21,51.4,35.4,26.1,31.9,18.6,10.6,99,55,28,29.27,29.07,24,9,24,0.00
2013-3-22,53.8,35.1,23.4,24.1,20.0,14.5,85,57,30,29.34,29.18,25,10,25,0.00
2013-3-23,58.3,40.2,28.9,24.3,20.9,17.3,75,50,28,29.39,29.28,27,11,27,0.12
2013-3-24,61.7,41.5,28.6,28.3,21.5,15.4,72,49,21,29.39,29.12,20,6,20,0.00
2013-3-25,40.8,36.6,33.3,39.2,32.7,27.3,99,87,64,29.13,28.91,18,6,18,0.15
2013-3-26,62.6,43.4,33.4,38.6,32.4,23.1,99,71,33,29.31,29.04,18,6,18,0.00
2013-3-27,63.0,44.4,32.0,34.8,29.4,20.4,84,61,26,29.44,29.31,28,9,28,0.05
2013-3-28,56.5,43.7,33.3,34.1,30.8,27.6,91,63,40,29.56,29.41,23,9,23,0.00
2013-3-29,68.4,47.4,33.3,33.0,29.7,22.7,84,55,23,29.60,29.50,25,7,25,0.02
2013-3-30,76.3,52.6,31.5,33.2,22.9,1.4,97,42,12,29.62,29.49,20,6,20,0.00
2013-3-31,62.6,44.9,27.7,47.0,34.8,24.9,99,73,31,29.56,29.12,21,6,21,0.19
2013-4-1,49.3,43.2,41.9,48.8,43.0,41.6,99,99,99,29.15,29.11,9,4,9,0.01
2013-4-2,54.9,44.5,33.3,15.8,10.0,3.3,49,28,17,29.54,29.41,31,13,31,0.71
2013-4-3,59.0,40.3,26.8,18.5,11.7,4.0,60,35,16,29.75,29.52,27,11,27,0.39
2013-4-4,69.4,45.2,26.2,28.9,18.4,11.5,65,40,18,29.84,29.51,18,6,19,0.00
2013-4-5,74.8,52.0,38.5,35.4,22.4,1.9,82,42,10,29.52,29.15,27,8,27,0.05
2013-4-6,70.3,46.9,32.5,29.8,13.8,-4.8,75,35,10,29.74,29.45,22,7,22,0.00
2013-4-7,73.4,54.0,34.5,46.6,37.0,25.1,90,59,26,29.73,29.40,23,8,23,0.01
2013-4-8,91.4,65.2,43.7,51.6,45.6,32.8,99,60,17,29.51,29.38,15,4,15,0.00
2013-4-9,93.7,73.7,53.8,54.6,44.5,16.7,94,48,10,29.41,29.31,30,7,30,0.31
2013-4-10,99.9,70.9,56.8,59.8,54.9,49.2,99,64,26,29.37,29.21,33,6,33,0.30
2013-4-11,58.5,53.1,47.3,58.2,52.1,44.9,99,96,89,29.44,29.19,19,14,21,0.30
2013-4-12,48.6,43.7,41.7,44.9,42.8,41.5,99,97,82,29.41,29.13,29,9,29,1.28
2013-4-13,75.2,52.9,38.1,47.9,38.8,32.8,99,66,27,29.41,29.17,18,5,18,0.01
2013-4-14,68.9,54.0,40.3,42.5,34.0,25.4,99,54,25,29.63,29.40,23,7,23,0.11
2013-4-15,73.6,54.6,42.3,41.4,35.1,27.7,78,52,25,29.80,29.63,17,5,17,0.00
2013-4-16,82.2,61.9,46.2,60.3,52.1,41.2,99,73,46,29.80,29.54,22,6,22,0.00
2013-4-17,87.3,65.8,51.6,59.6,41.8,12.2,99,56,11,29.72,29.53,17,5,17,0.02
2013-4-18,62.1,53.8,43.2,54.2,48.6,42.1,99,84,58,29.76,29.51,17,4,17,0.00
2013-4-19,89.1,68.0,53.2,68.3,63.0,53.0,99,86,52,29.52,29.03,23,8,23,0.41
2013-4-20,70.7,54.1,44.2,52.8,36.1,24.5,99,59,25,29.75,29.13,27,11,27,0.43
2013-4-21,72.5,48.4,32.4,30.4,22.6,7.9,72,43,14,30.06,29.75,23,6,23,0.00
2013-4-22,65.5,48.0,30.9,40.0,34.3,28.4,99,65,34,30.08,29.90,25,8,25,0.00
2013-4-23,53.2,46.0,40.3,49.5,39.9,34.4,98,80,60,29.91,29.56,15,5,15,0.00
2013-4-24,83.5,59.3,35.2,57.1,48.4,34.8,99,72,41,29.57,29.22,17,5,17,0.00
2013-4-25,79.5,58.8,42.6,58.6,30.8,7.3,87,43,11,29.70,29.28,31,8,31,0.72
2013-4-26,80.1,57.9,38.3,38.0,28.8,11.9,84,42,12,29.85,29.70,18,4,18,0.00
2013-4-27,85.8,60.7,36.9,40.8,30.2,10.8,90,43,10,29.88,29.70,11,3,11,0.00
2013-4-28,85.8,60.9,37.0,44.0,37.0,26.3,99,50,21,29.75,29.61,15,4,15,0.00
2013-4-29,54.7,52.8,50.7,54.4,51.2,43.9,99,95,69,29.67,29.59,13,3,13,0.20
2013-4-30,79.9,59.9,43.5,63.2,43.7,10.5,99,67,14,29.77,29.62,16,4,16,0.02
2013-5-1,81.3,58.4,34.5,46.1,36.0,11.9,99,57,12,29.92,29.76,15,4,15,0.00
2013-5-2,88.7,62.8,37.2,53.8,41.1,29.2,99,58,17,29.91,29.75,10,2,10,0.00
2013-5-3,81.3,61.1,43.9,48.7,41.4,33.7,99,58,23,29.88,29.77,17,4,17,0.00
2013-5-4,84.2,59.9,38.7,53.9,42.4,35.0,99,64,22,29.81,29.65,15,4,15,0.00
2013-5-5,78.1,56.4,40.1,46.2,42.8,37.5,99,69,28,29.73,29.64,15,4,15,0.00
2013-5-6,85.1,60.5,42.1,55.7,50.0,41.6,99,74,38,29.69,29.57,13,3,13,0.00
2013-5-7,86.4,64.5,46.8,62.9,55.9,46.3,99,78,45,29.60,29.49,18,4,18,0.00
2013-5-8,83.3,62.7,54.7,81.7,62.0,54.4,99,98,74,29.51,29.36,15,4,15,0.80
2013-5-9,84.6,64.2,54.3,75.1,58.5,54.0,99,85,45,29.42,29.32,11,2,11,0.25
2013-5-10,96.1,73.7,54.1,65.2,58.2,50.3,99,66,27,29.44,29.31,16,3,16,0.07
2013-5-11,84.6,67.7,59.9,74.9,66.2,59.1,99,96,63,29.35,29.13,31,3,31,1.04
2013-5-13,67.5,52.1,39.2,34.5,29.4,21.9,82,47,25,29.56,29.45,21,8,21,0.00
2013-5-14,73.8,53.4,32.5,37.9,28.3,9.7,99,51,13,29.60,29.46,15,4,15,0.00
2013-5-15,86.4,64.0,42.6,62.7,51.0,34.0,94,67,38,29.51,29.11,14,3,14,0.00
2013-5-16,94.5,74.8,58.1,67.4,59.4,42.9,99,65,31,29.27,29.14,13,3,13,0.00
2013-5-17,85.1,69.0,51.3,49.8,42.4,33.5,92,43,21,29.63,29.27,102,5,102,0.00
2013-5-18,76.3,59.9,50.4,59.7,54.9,46.8,99,85,50,29.74,29.63,8,2,8,0.00
2013-5-19,62.1,57.9,54.1,61.8,57.7,53.7,99,99,99,29.73,29.59,8,2,8,0.30
2013-5-20,91.6,72.0,57.7,81.9,66.5,57.1,99,86,54,29.62,29.39,10,2,10,0.01
2013-5-21,97.0,72.6,60.8,76.3,67.4,60.3,99,87,50,29.41,29.34,8,2,8,0.00
2013-5-24,70.0,54.2,43.2,69.7,53.9,42.7,99,99,95,29.44,29.14,23,7,23,0.47
2013-5-25,64.6,34.1,-31.0,47.3,23.0,-34.0,99,70,42,29.47,29.38,34,12,34,1.62
2013-5-26,74.8,60.2,45.0,42.1,36.8,27.6,87,48,24,29.65,29.45,33,10,33,0.22
2013-5-27,87.3,63.9,39.0,47.6,39.2,25.9,99,51,17,29.70,29.57,15,4,15,0.00
2013-5-28,68.0,58.0,47.5,62.0,55.2,47.2,99,91,62,29.66,29.55,8,2,8,0.38
2013-5-29,101.0,75.1,58.3,80.5,66.5,58.0,99,80,41,29.56,29.43,15,3,15,0.01
2013-5-30,105.0,86.2,68.7,72.3,68.0,60.8,99,62,29,29.57,29.49,12,4,12,0.00
2013-5-31,105.0,85.7,66.0,73.6,67.8,59.1,99,62,29,29.57,29.42,11,3,11,0.00
2013-6-1,102.0,85.1,64.6,75.0,69.4,63.3,99,65,37,29.47,29.32,14,3,14,0.00
2013-6-2,96.3,85.6,73.0,73.7,71.8,68.5,92,66,47,29.30,29.21,15,6,15,0.00
2013-6-3,89.1,75.2,67.6,73.0,68.2,54.9,99,81,50,29.33,29.22,16,4,16,0.18
2013-6-4,80.8,67.7,56.1,54.9,46.8,41.1,77,51,30,29.56,29.32,17,6,17,0.00
2013-6-5,82.8,67.4,49.8,56.5,49.8,43.1,92,58,33,29.65,29.54,11,3,11,0.00
2013-6-6,75.9,63.5,52.2,64.3,58.7,51.9,99,87,48,29.58,29.41,15,4,15,0.24
2013-6-7,72.5,61.9,60.4,64.7,61.6,58.9,99,99,99,29.42,29.03,18,4,18,2.36
2013-6-8,82.2,69.7,58.8,68.7,64.3,58.5,99,84,60,29.50,29.02,15,5,15,0.27
2013-6-9,88.5,74.5,58.5,66.5,62.6,58.2,99,71,42,29.62,29.49,13,3,13,0.00
2013-6-10,70.2,66.6,64.6,69.9,66.3,64.3,99,99,98,29.59,29.22,15,3,15,1.17
2013-6-11,83.5,75.2,68.0,72.0,68.5,64.2,99,82,59,29.22,29.07,23,6,23,0.05
2013-6-12,84.0,74.9,65.8,64.7,59.7,54.7,87,63,42,29.29,29.17,21,5,21,0.00
2013-6-13,68.4,63.1,57.0,67.9,62.5,56.7,99,98,84,29.28,28.84,18,3,18,1.03
2013-6-14,79.0,62.0,54.9,63.0,57.5,53.3,99,88,55,29.35,28.96,30,6,30,0.32
2013-6-15,85.5,71.2,55.9,63.6,58.9,52.7,99,71,36,29.46,29.34,14,4,14,0.00
2013-6-16,86.9,71.7,56.5,69.4,63.2,56.2,99,78,43,29.44,29.21,22,4,22,0.00
2013-6-17,90.7,76.1,64.9,74.6,68.9,63.9,99,81,50,29.36,29.26,34,3,34,1.25
2013-6-18,88.7,71.5,63.9,74.2,68.5,63.6,99,92,60,29.34,29.24,11,2,11,0.18
2013-6-19,85.5,70.9,59.0,63.6,56.5,46.9,99,67,32,29.60,29.31,13,4,13,0.00
2013-6-20,86.9,72.4,54.0,64.8,59.5,44.8,99,69,37,29.71,29.60,119,2,119,0.00
2013-6-21,89.1,74.1,55.8,63.5,59.2,55.5,99,65,38,29.75,29.66,9,2,9,0.00
2013-6-22,91.8,75.4,55.9,69.8,64.0,54.8,99,71,47,29.70,29.55,9,2,9,0.00
2013-6-23,92.1,78.0,62.8,75.4,70.4,62.5,99,80,53,29.64,29.48,10,2,10,0.00
2013-6-24,97.5,79.7,68.5,76.4,71.8,62.2,99,81,44,29.52,29.39,23,4,23,0.01
2013-6-25,95.2,79.9,67.1,81.8,71.9,66.8,99,80,49,29.44,29.25,29,4,29,0.25
2013-6-26,93.6,80.6,71.8,75.9,71.3,67.1,99,75,50,29.31,29.21,17,4,17,0.00
2013-6-27,94.3,80.0,-8.3,78.8,73.3,-8.5,99,83,54,29.26,28.98,14,3,14,1.56
2013-6-28,90.9,78.6,71.1,76.2,72.5,69.5,99,84,56,29.00,28.90,11,4,11,0.01
2013-6-29,93.7,79.0,66.2,73.8,69.1,65.4,99,76,44,29.13,28.92,11,2,11,0.00
2013-6-30,89.2,77.3,67.5,81.1,74.2,67.2,99,91,67,29.34,29.13,7,2,7,0.06
2013-7-1,81.0,75.7,71.4,79.0,75.2,71.1,99,99,89,29.47,29.30,46,3,46,1.51
2013-7-2,89.1,78.5,73.6,80.0,75.9,73.1,99,92,72,29.62,29.46,8,3,8,0.01
2013-7-3,92.5,79.5,70.9,84.4,76.0,70.6,99,90,63,29.69,29.60,10,2,10,0.06
2013-7-4,94.1,82.9,73.0,79.7,76.3,72.7,99,82,60,29.70,29.59,13,3,13,0.01
2013-7-5,96.1,84.3,71.6,79.4,75.6,71.3,99,78,52,29.66,29.53,13,3,13,0.00
2013-7-6,96.8,86.0,73.0,79.0,76.0,72.7,99,76,50,29.59,29.46,13,4,13,0.00
2013-7-7,97.2,85.4,73.4,80.9,76.3,72.2,99,77,54,29.52,29.37,31,3,31,0.18
2013-7-8,93.4,79.5,69.3,75.6,71.8,69.0,99,80,52,29.49,29.41,13,4,13,0.00
2013-7-9,94.3,79.3,68.7,77.0,73.2,68.4,99,84,55,29.52,29.42,14,2,14,0.01
2013-7-10,92.3,81.7,72.0,80.0,76.1,71.5,99,85,61,29.45,29.24,17,4,17,0.00
2013-7-11,92.1,80.6,74.5,77.6,73.4,64.8,99,81,56,29.37,29.23,9,3,9,0.00
2013-7-12,81.3,73.7,68.9,73.1,69.2,65.0,99,87,71,29.51,29.35,15,3,15,0.46
2013-7-13,89.6,75.3,68.7,81.2,74.0,68.4,99,96,76,29.73,29.50,11,2,11,0.38
2013-7-14,96.1,83.7,74.3,80.7,75.9,72.1,99,81,52,29.79,29.68,11,3,11,0.00
2013-7-29,81.5,73.0,64.6,61.6,60.6,58.6,89,68,48,29.56,29.49,6,3,6,0.01
2013-7-30,85.3,74.7,59.2,65.0,62.4,58.7,99,69,46,29.63,29.55,14,3,14,0.00
2013-7-31,89.2,74.2,58.6,68.7,63.7,58.4,99,75,43,29.61,29.47,6,2,6,0.00
2013-8-1,70.3,68.6,66.4,69.7,68.2,65.9,99,99,93,29.47,29.26,8,2,8,0.56
2013-8-2,88.0,75.9,64.0,72.3,67.5,62.0,99,79,46,29.37,29.23,20,3,20,0.01
2013-8-3,80.8,70.5,65.8,72.1,68.0,64.1,99,92,72,29.36,29.29,13,3,13,0.05
2013-8-4,82.6,71.4,60.6,68.5,61.5,55.5,99,74,45,29.44,29.29,21,5,21,0.04
2013-8-5,82.8,69.2,54.1,62.7,55.6,48.9,99,67,37,29.52,29.42,15,4,15,0.00
2013-8-6,88.3,71.4,56.5,67.6,61.4,53.9,99,76,37,29.55,29.47,10,2,10,0.00
2013-8-7,82.8,72.2,65.8,72.9,69.4,65.1,99,92,66,29.57,29.48,9,2,9,0.01
2013-8-8,90.9,76.4,68.9,79.3,73.8,68.6,99,93,65,29.49,29.41,12,2,12,0.26
2013-8-9,88.3,78.8,73.6,79.9,76.3,73.3,99,93,73,29.44,29.24,17,4,17,0.11
2013-8-10,89.8,76.2,68.5,73.5,69.5,65.4,99,83,51,29.49,29.31,11,3,11,0.01
2013-8-11,91.8,74.5,59.7,69.6,63.8,57.2,99,74,44,29.57,29.45,9,2,9,0.00
2013-8-12,92.8,76.3,68.2,72.9,68.5,63.6,99,81,41,29.48,29.36,8,2,8,0.04
2013-8-13,88.7,73.9,66.9,75.1,70.5,66.6,99,91,61,29.37,29.13,14,2,14,0.71
2013-8-14,69.1,66.8,64.0,68.4,61.3,54.6,99,83,72,29.24,29.20,14,7,14,0.00
2013-8-15,82.4,75.8,61.2,59.2,54.6,51.4,89,53,39,29.58,29.50,10,4,10,0.00
2013-8-16,89.8,72.4,53.6,63.9,57.9,52.5,99,67,33,29.63,29.57,7,2,7,0.00
2013-8-17,89.1,73.9,55.8,65.8,60.1,55.5,99,69,39,29.71,29.65,6,2,6,0.00
2013-8-18,80.8,69.8,62.2,68.3,66.0,61.4,99,89,60,29.70,29.57,11,2,11,0.00
2013-8-19,80.6,70.3,61.5,70.7,65.6,61.2,99,87,57,29.58,29.48,8,2,8,0.00
2013-8-20,93.4,77.3,63.1,73.6,68.0,62.9,99,78,43,29.58,29.49,10,3,10,0.01
2013-8-21,93.6,78.4,63.0,71.8,67.3,60.4,99,75,39,29.63,29.49,11,2,11,0.00
2013-8-22,75.2,71.5,69.6,74.9,71.2,69.3,99,99,99,29.52,29.32,5,1,5,1.07
2013-8-23,84.9,74.5,66.9,71.8,66.2,55.6,99,79,45,29.54,29.32,15,4,15,0.00
2013-8-24,90.5,72.8,59.2,63.9,57.1,48.8,99,64,29,29.79,29.54,12,3,12,0.00
2013-8-25,88.0,70.1,53.8,64.1,58.7,52.6,99,73,39,29.85,29.68,10,3,10,0.00
2013-8-26,87.8,73.8,62.8,72.1,66.0,60.1,95,78,58,29.69,29.36,15,4,15,0.01
2013-8-27,92.8,79.2,69.4,74.2,71.6,69.1,99,81,51,29.37,29.27,15,4,15,0.04
2013-8-28,79.3,72.9,67.8,76.7,72.4,67.5,99,98,90,29.33,29.27,4,1,4,0.41
2013-8-29,89.4,74.7,68.7,75.9,71.5,68.4,99,91,60,29.47,29.31,6,2,6,0.01
2013-8-30,88.0,75.6,68.4,76.6,71.9,68.1,99,90,65,29.47,29.29,13,3,13,0.00
2013-8-31,92.1,78.7,69.4,79.4,75.2,69.1,99,90,64,29.31,29.21,12,2,12,0.00
2013-9-1,94.5,78.3,71.6,81.2,75.3,71.1,99,92,63,29.29,29.21,12,2,12,0.21
2013-9-2,84.9,74.9,70.9,79.8,73.7,63.9,99,96,78,29.24,29.14,11,2,11,0.22
2013-9-3,85.5,74.7,63.7,74.9,67.0,59.6,99,80,47,29.34,29.15,15,4,15,0.00
2013-9-4,86.5,70.8,57.9,64.3,61.5,57.6,99,76,47,29.46,29.33,15,4,15,0.00
2013-9-5,80.8,68.6,55.4,66.5,58.1,46.9,99,74,38,29.60,29.38,19,5,19,0.00
2013-9-6,79.3,62.8,48.4,52.5,48.9,41.5,99,67,35,29.70,29.58,9,3,9,0.00
2013-9-7,84.2,65.1,46.4,61.9,53.4,46.1,99,72,35,29.58,29.34,12,2,12,0.00
2013-9-8,85.5,71.1,58.5,69.8,60.7,48.6,99,73,44,29.52,29.26,19,5,19,0.00
2013-9-9,80.4,65.7,48.6,63.6,55.8,47.8,99,73,49,29.68,29.52,10,2,10,0.00
2013-9-10,91.2,77.1,65.5,78.8,72.9,63.7,99,89,66,29.60,29.48,11,3,11,0.00
2013-9-11,97.2,86.1,73.0,82.6,78.2,72.7,99,80,58,29.55,29.41,12,3,12,0.00
2013-9-12,90.3,80.0,70.5,80.4,76.0,70.2,99,89,70,29.43,29.12,23,2,23,0.02
2013-9-13,78.3,69.2,56.8,67.2,59.5,52.5,90,73,57,29.32,29.11,20,8,20,0.05
2013-9-14,68.4,58.2,48.0,52.9,50.3,47.5,99,77,58,29.59,29.31,18,6,18,0.00
2013-9-15,79.2,60.0,42.1,57.3,50.4,41.8,99,76,41,29.67,29.52,12,3,12,0.00
2013-9-16,75.9,61.2,53.4,63.1,56.5,52.0,99,86,60,29.69,29.47,17,3,17,0.07
2013-9-17,76.3,57.7,44.2,52.3,45.1,39.5,99,68,34,29.88,29.68,18,3,18,0.00
2013-9-18,79.0,58.3,40.3,54.4,47.1,40.0,99,73,33,29.80,29.62,9,2,9,0.00
2013-9-19,83.3,62.2,43.5,59.0,51.4,43.3,99,74,37,29.64,29.50,11,2,11,0.00
2013-9-20,86.5,67.2,46.8,65.5,58.3,46.5,99,78,43,29.53,29.40,7,2,7,0.00
2013-9-21,83.3,64.9,53.6,69.6,59.3,53.3,99,86,46,29.45,29.10,15,3,15,0.67
2013-9-22,73.2,63.7,53.8,63.9,53.4,44.6,99,72,45,29.37,29.09,19,7,19,0.24
2013-9-23,68.9,57.5,48.2,49.3,46.3,43.9,89,68,49,29.50,29.37,18,6,18,0.00
2013-9-24,79.5,58.9,39.2,52.1,47.5,38.9,99,71,37,29.51,29.32,15,4,15,0.00
2013-9-25,81.0,60.9,43.3,55.3,50.0,43.1,99,72,42,29.41,29.31,8,2,8,0.00
2013-9-26,80.8,61.2,47.7,63.0,56.1,47.4,99,86,54,29.53,29.37,14,2,14,0.00
2013-9-27,78.1,62.5,52.0,59.2,55.5,51.7,99,82,45,29.70,29.53,11,2,11,0.00
2013-9-28,82.8,64.5,53.2,59.9,55.5,50.3,99,78,39,29.76,29.67,8,2,8,0.00
2013-9-29,81.7,61.5,47.5,63.0,55.5,47.2,99,84,48,29.68,29.51,10,2,10,0.00
2013-9-30,84.2,62.2,45.1,59.1,53.3,44.9,99,78,38,29.53,29.41,8,2,8,0.00
2013-10-1,85.5,67.3,51.1,65.0,58.8,50.8,99,78,49,29.46,29.34,14,3,14,0.00
2013-10-2,87.3,72.3,55.4,66.9,63.0,55.1,99,76,49,29.46,29.36,15,4,17,0.00
2013-10-3,84.9,69.6,55.0,67.1,62.0,54.8,99,81,45,29.57,29.46,5,2,5,0.00
2013-10-4,92.1,72.4,58.3,72.1,65.8,58.0,99,83,49,29.51,29.39,12,2,12,0.00
2013-10-5,87.8,72.7,63.7,72.4,68.4,63.4,99,88,59,29.53,29.44,7,2,7,0.00
2013-10-6,73.4,68.0,64.8,71.6,67.6,64.5,99,99,93,29.52,29.43,11,3,11,0.00
2013-10-7,78.4,66.5,57.4,75.6,65.6,51.0,99,97,76,29.44,29.16,27,4,27,0.50
2013-10-8,71.1,58.4,46.0,54.6,50.2,45.8,99,77,46,29.77,29.43,17,3,17,0.00
2013-10-9,65.1,55.6,48.0,53.1,49.4,44.3,94,80,62,29.83,29.70,13,3,13,0.00
2013-10-10,54.7,54.2,53.6,52.5,51.3,49.8,93,90,88,29.70,29.67,8,2,8,0.00
2013-10-14,78.1,64.6,49.5,55.3,52.7,49.2,99,69,43,29.79,29.67,7,2,7,0.00
2013-10-15,76.3,59.1,44.1,60.3,45.1,5.5,99,70,10,29.70,29.55,11,2,11,0.00
2013-10-16,74.7,60.7,48.9,61.8,57.2,48.1,99,89,63,29.56,29.34,5,2,5,0.00
2013-10-17,77.4,66.3,60.6,68.0,63.6,60.3,99,92,67,29.35,29.11,7,2,7,0.01
2013-10-18,70.0,60.7,49.1,66.4,49.6,44.9,99,69,46,29.44,29.11,25,8,25,0.07
2013-10-19,67.3,52.7,39.6,56.4,47.9,39.3,99,86,55,29.44,29.19,10,2,10,0.01
2013-10-20,63.0,52.3,42.1,54.8,44.1,38.3,99,76,45,29.51,29.20,20,6,20,0.01
2013-10-21,72.1,54.0,36.9,49.5,42.1,36.6,99,71,34,29.60,29.42,14,2,14,0.00
2013-10-22,66.2,52.3,39.6,55.7,46.6,36.3,99,83,60,29.42,29.20,15,3,15,0.00
2013-10-23,59.4,46.0,36.9,44.8,39.4,36.0,99,80,56,29.26,29.05,17,3,17,0.00
2013-10-24,56.1,44.6,36.5,38.9,34.3,27.5,99,71,39,29.47,29.21,23,7,23,0.00
2013-10-25,58.5,44.5,34.5,38.9,34.2,30.8,92,70,41,29.68,29.46,23,5,23,0.00
2013-10-26,59.0,45.9,34.0,38.1,34.0,30.1,95,67,39,29.68,29.33,23,4,23,0.00
2013-10-27,59.4,49.6,40.8,39.0,35.1,32.8,78,59,44,29.57,29.29,20,5,20,0.00
2013-10-28,64.2,47.9,32.4,40.4,35.6,31.2,99,68,38,29.75,29.57,17,3,17,0.00
2013-10-29,66.4,49.3,39.0,41.0,37.4,33.7,89,67,39,29.85,29.74,8,2,8,0.00
2013-10-30,61.5,49.0,37.0,54.5,45.4,34.1,99,88,66,29.80,29.61,5,1,5,0.00
2013-10-31,66.9,59.1,51.6,64.5,58.2,51.3,99,97,84,29.66,29.22,10,2,10,0.08
2013-11-1,74.1,64.9,55.8,67.9,61.7,55.3,99,90,61,29.23,28.97,30,6,30,0.53
2013-11-2,73.2,57.5,48.6,57.5,49.0,41.8,99,77,46,29.23,29.05,14,3,14,0.00
2013-11-3,54.3,45.3,33.1,45.3,34.0,21.9,90,67,36,29.90,29.22,21,8,21,0.00
2013-11-4,52.5,38.0,27.1,27.1,21.1,13.9,81,55,26,30.10,29.90,16,3,16,0.00
2013-11-5,61.3,45.3,30.6,44.7,37.2,25.8,93,75,52,30.10,29.91,8,2,8,0.00
2013-11-6,69.3,53.2,41.4,55.3,48.4,41.1,99,86,56,29.94,29.49,11,3,11,0.00
2013-11-7,62.2,52.5,41.4,61.0,49.9,34.8,99,91,70,29.50,29.20,23,5,23,0.15
2013-11-8,51.6,43.1,36.5,39.8,32.5,29.1,95,68,48,29.68,29.39,25,7,25,0.05
2013-11-9,54.3,41.6,30.7,35.0,31.1,28.3,91,69,40,29.74,29.42,12,4,12,0.00
2013-11-10,62.1,47.7,33.3,39.9,34.6,30.3,99,64,44,29.52,29.27,33,9,33,0.46
2013-11-11,55.4,48.2,39.9,37.1,32.5,27.7,63,56,45,29.67,29.40,21,6,21,0.00
2013-11-12,50.5,37.3,29.5,39.4,26.1,17.6,98,65,48,29.76,29.37,33,10,33,0.15
2013-11-13,43.0,32.7,26.6,22.6,17.7,10.8,71,56,34,29.83,29.72,23,8,23,0.00
2013-11-14,31.1,29.6,28.8,22.8,22.6,22.4,77,75,71,29.73,29.68,11,5,11,0.00
2013-11-18,62.6,55.3,49.8,31.5,29.6,27.6,46,39,30,29.25,29.10,31,10,31,0.33
2013-11-19,49.6,43.5,34.7,31.8,27.0,23.6,64,53,45,29.80,29.24,35,12,35,0.52
2013-11-20,53.2,37.0,27.0,24.8,14.8,-7.5,78,47,12,30.06,29.79,17,4,17,0.00
2013-11-21,55.2,41.5,25.3,44.1,31.8,16.7,89,69,49,30.05,29.82,11,2,11,0.00
2013-11-22,59.9,51.1,45.9,53.8,49.1,43.6,99,93,79,29.82,29.35,15,3,15,0.07
2013-11-23,54.5,42.1,29.5,52.2,28.6,6.1,99,61,38,29.50,29.35,31,14,31,0.97
2013-11-24,29.5,25.1,20.8,10.8,4.4,0.4,52,42,36,29.85,29.48,38,15,38,3.46
2013-11-25,38.7,28.2,18.0,18.3,14.4,7.4,80,57,42,29.94,29.77,16,4,16,0.00
2013-11-26,47.5,34.7,29.7,47.0,29.1,17.7,99,81,60,29.78,29.13,13,2,13,0.72
2013-11-27,66.7,44.9,32.7,60.7,42.9,21.5,99,93,62,29.23,28.78,29,10,29,1.95
2013-11-28,38.1,31.6,27.3,25.9,17.8,12.7,81,59,39,29.91,29.23,29,10,29,0.18
2013-11-29,43.3,31.8,24.3,26.9,22.3,18.8,91,69,47,30.18,29.90,16,4,16,0.00
2013-11-30,38.1,29.9,18.7,31.3,23.2,14.2,90,77,55,30.19,29.81,11,3,11,0.00
2013-12-1,52.3,39.2,27.3,37.7,32.4,27.1,99,79,52,29.81,29.45,10,2,10,0.00
2013-12-2,54.5,40.3,34.7,36.8,34.1,31.4,94,80,51,29.45,29.31,5,2,5,0.00
2013-12-3,57.6,42.3,33.3,42.3,36.7,32.5,99,83,50,29.44,29.31,13,2,13,0.00
2013-12-4,53.2,42.6,30.6,47.0,40.2,30.3,99,92,73,29.57,29.44,7,2,7,0.00
2013-12-5,56.3,50.8,45.7,56.0,50.6,45.4,99,99,99,29.55,29.36,7,2,7,0.02
2013-12-6,64.6,46.7,36.7,61.2,46.4,36.4,99,99,99,29.60,29.29,24,5,24,1.02
2013-12-7,43.5,35.4,28.6,36.4,30.4,20.2,99,83,63,29.96,29.52,20,7,20,0.09
2013-12-8,31.6,27.6,23.9,28.5,22.9,18.3,99,83,64,30.03,29.78,11,3,11,0.00
2013-12-9,36.0,33.1,28.8,35.7,32.9,28.5,99,99,99,29.78,29.41,9,2,9,0.24
2013-12-10,35.4,30.7,22.3,35.0,30.0,19.3,99,97,82,29.59,29.33,8,1,8,0.00
2013-12-11,36.7,27.5,21.2,23.3,19.2,16.3,93,72,51,29.78,29.59,18,5,20,0.01
2013-12-12,30.6,23.8,15.4,19.3,11.8,6.9,81,61,41,29.81,29.60,22,7,22,0.00
2013-12-13,37.8,25.9,14.0,20.4,15.1,8.2,81,64,47,29.77,29.58,23,5,23,0.00
2013-12-14,26.6,26.0,25.3,23.0,21.6,19.9,90,83,76,29.79,29.75,7,2,7,0.00
2013-12-16,27.9,20.7,15.1,13.7,10.7,8.7,88,66,45,29.67,29.55,14,2,14,0.01
2013-12-17,28.2,21.9,17.1,28.0,20.9,13.7,99,96,84,29.65,29.37,14,3,14,0.00
2013-12-18,40.3,28.7,17.6,26.0,22.0,17.2,99,77,55,29.63,29.37,20,5,20,0.02
2013-12-19,45.9,32.7,17.4,31.4,25.9,17.0,99,78,55,29.63,29.46,9,2,9,0.01
2013-12-20,57.0,40.3,28.2,41.0,33.5,28.0,99,79,50,29.54,29.39,4,2,4,0.00
2013-12-21,66.2,47.2,34.9,55.4,44.3,34.6,99,91,69,29.45,29.33,7,2,7,0.00
2013-12-22,69.4,63.6,46.2,67.0,61.9,46.0,99,94,83,29.39,29.22,27,8,27,0.04
2013-12-23,59.9,53.9,40.1,59.6,52.9,32.1,99,97,74,29.60,29.32,24,5,24,0.41
2013-12-24,41.9,34.4,25.0,31.9,24.3,13.9,99,67,53,29.81,29.55,25,9,25,0.00
2013-12-25,30.9,23.9,16.7,17.5,12.2,8.6,74,61,44,29.98,29.81,23,6,23,0.00
2013-12-26,39.2,28.2,19.9,31.7,24.2,17.4,96,85,74,29.86,29.61,14,3,14,0.00
2013-12-27,43.2,32.2,22.1,26.0,23.2,19.3,93,71,47,29.81,29.70,17,4,17,0.00
2013-12-28,57.9,32.9,19.9,32.4,25.5,19.5,99,80,38,29.73,29.52,21,4,21,0.00
2013-12-31,17.6,17.2,16.9,13.7,13.4,13.2,85,84,84,29.59,29.58,2,2,2,0.00
2014-1-2,25.2,21.1,16.0,23.3,20.6,15.8,99,98,93,29.29,29.09,22,10,22,0.00